Location: Larkspur
(54.4391°N, 113.7691°W)
Time: 13:45:59
(UTC+00:00)

Oscar 19 - Pass Details

Date: 04 December 2023
Orbit: 771 x 789 km, 98.9° (Epoch: 01 March)

Event Time Altitude Azimuth Distance (km) Brightness Sun altitude
Rises 10:52:19 0° 28° (NNE) 3,273 14.4 -39.9°
Reaches altitude 10° 10:55:44 10° 51° (NE) 2,343 13.7 -39.4°
Maximum altitude 10:58:36 15° 85° (E) 2,024 13.4 -39.0°
Drops below altitude 10° 11:01:27 10° 119° (ESE) 2,340 13.5 -38.6°
Sets 11:04:51 0° 143° (SE) 3,266 14.1 -38.1°
